Weather in Buturlinovka

Russia / Voronezh Oblast     50°50′07″N   40°35′05″E
temp.,
°C
wind,
m/s
gust,
m/s
humid.,
%
clouds,
%
prec.,
mm/h
press.,
hPa
HPBL,
m
28 february, sun
sun2800:00−1nnw51183100 0.1 1013589
03:00−4nnw488155 0.1 1014458
06:00−4nnw36820 0.0 1015425
09:00−4nnw468118 0.0 1016497
12:00−1nw477599 0.0 1016641
15:000nw587396 0.0 1016809
18:00−1nnw248186 0.0 1017121
21:00−2n229076 0.0 101975
1 march, mon
mon100:00−3ene239177 0.0 1020149
03:00−4nne239368 0.0 1022118
06:00−5nne348942 0.0 1023266
09:00−5nne348041 0.0 1025376
12:00−3n336663 0.0 1026587
15:00−1nnw336265 0.0 1027736
18:00−2wnw237326 0.0 102691
21:00−3wsw357913 0.0 1026197
2 march, tue
tue200:00−2wsw488494 0.0 1025340
03:00−1wsw6127697 0.0 1022584
06:00−1wsw71481100 0.0 1019584
09:000wsw81490100 0.4 1016650
12:00+1w91597100 1.2 1014884
15:00+1wnw81397100 1.8 1012776
18:00+1nw5128799 0.1 1012722
21:00−1nw6138971 0.2 1013559
3 march, wed
wed300:00−1nw6129268 0.0 1013501
03:00−2wnw6119664 0.1 1013507
06:00−2nw6129089 0.1 1014612
09:00−1nw8118593 0.2 1015997
12:00−1nw81073100 0.1 10171075
15:00+1nnw8126193 0.1 10181367
18:00−1nw5117229 0.0 1019629
21:00−2nw5108440 0.0 1021742
4 march, thu
thu400:00−1nw488499 0.1 1022695
03:00−2wnw378499 0.1 1022499
06:00−3wsw368786 0.0 1023159
09:00−1wsw478143 0.0 1022475
12:00+1wsw697225 0.0 1021688
15:00+3wsw7106312 0.0 1018983
18:00+1sw512760 0.0 1016327
21:00+1sw616770 0.0 1015461